Pine City, MN (55063)

3:22 AM CST on February 14, 2016 (GMT -0600)
Rush City Regional | | Change Station
CLOSE
Current Station
Airport
Location: Rush City,
Elevation: 922 ft
Nearby Weather Stations

Elev 922 ft 45.70 °N, 92.95 °W | Updated 6 minutes ago

Overcast
Overcast
8 °F
Feels Like -8 °F
N
12
Wind Variable Wind from SE

Today
High -- | Low -- °F
--% Chance of Precip.
Yesterday
High -- | Low -- °F
Precip. -- in
Pressure 30.21 in
Visibility 10.0 miles
Clouds Overcast 7500 ft
Windchill -8 °F
Dew Point -7 °F
Humidity 52%
Rainfall 0.00 in
Snow Depth Not available.
7:16 AM 5:36 PM
Waxing Crescent, 40% visible
METAR KROS 140916Z AUTO 13010KT 10SM OVC075 M14/M21 A3021 RMK AO2 T11361215
Pressure 30.21 in
Visibility 10.0 miles
Clouds Overcast 7500 ft
Windchill -8 °F
Dew Point -7 °F
Humidity 52%
Rainfall 0.00 in
Snow Depth Not available.
7:16 AM 5:36 PM
Waxing Crescent, 40% visible
METAR KROS 140916Z AUTO 13010KT 10SM OVC075 M14/M21 A3021 RMK AO2 T11361215

10-Day Weather Forecast

Almanac

Astronomy

Feb. 14, 2016 Rise Set
Actual Time
Civil Twilight
Nautical Twilight
Astronomical Twilight
Moon
Length of Visible Light
Length of Day
Tomorrow will be .
, % of the Moon is Illuminated

Today's Extremes

State Highs State Lows

Community

WunderPhotos

Upload Photos

1,892,761 photos uploaded!

WunderBlog® & News

Nearby

Air Quality

  Air Quality AQ Index Pollutant
Not available.

Snow Depth

Station Depth Elevation

Earthquake Activity

City Distance Mag. Time & Date
Minimum magnitude displayed is 2.5.

Coastal Water Temperatures

Place Temperature

Stations

Nearby Weather Stations

Station Location Temp. Windchill Dew Point Humidity Wind Precip. Elev Updated Type
                   

Watches & Warnings

There are currently no watches in effect.